Hourly Weather Allaman

Today, 23 June, Wednesday

Time Temperature Precipitation Wind Pressure Humidity
00:00 +15°C° 0 mm 1 mps 718 mmHg 91%
01:00 +15°C° 0.3 mm 1 mps 718 mmHg 91%
02:00 +15°C° 0.3 mm 1 mps 718 mmHg 92%
03:00 +14°C° 0.3 mm 1 mps 718 mmHg 93%
04:00 +15°C° 0 mm 1 mps 718 mmHg 92%
05:00 +16°C° 0 mm 1 mps 718 mmHg 91%
06:00 +16°C° 0 mm 0 mps 719 mmHg 89%
07:00 +20°C° 0.1 mm 1 mps 719 mmHg 82%
08:00 +21°C° 0.1 mm 1 mps 719 mmHg 76%
09:00 +22°C° 0.1 mm 1 mps 719 mmHg 69%
10:00 +23°C° 0.5 mm 1 mps 719 mmHg 69%
11:00 +23°C° 0.5 mm 1 mps 719 mmHg 69%
12:00 +24°C° 0.5 mm 1 mps 719 mmHg 69%
13:00 +23°C° 0.7 mm 1 mps 719 mmHg 71%
14:00 +23°C° 0.7 mm 1 mps 719 mmHg 72%
15:00 +23°C° 0.7 mm 1 mps 718 mmHg 73%
16:00 +22°C° 1.6 mm 1 mps 718 mmHg 78%
17:00 +20°C° 1.6 mm 2 mps 719 mmHg 84%
18:00 +19°C° 1.6 mm 2 mps 719 mmHg 89%
19:00 +18°C° 0.6 mm 2 mps 719 mmHg 90%
20:00 +18°C° 0.6 mm 1 mps 719 mmHg 92%
21:00 +16°C° 0.6 mm 1 mps 720 mmHg 93%
22:00 +16°C° 0.1 mm 1 mps 720 mmHg 93%
23:00 +15°C° 0.1 mm 1 mps 720 mmHg 93%

Tomorrow, 24 June, Thursday

Time Temperature Precipitation Wind Pressure Humidity
00:00 +15°C° 0.1 mm 1 mps 720 mmHg 93%
01:00 +15°C° 0.2 mm 1 mps 719 mmHg 93%
02:00 +14°C° 0.2 mm 1 mps 719 mmHg 94%
03:00 +14°C° 0.2 mm 1 mps 719 mmHg 94%
04:00 +14°C° 0.8 mm 0 mps 719 mmHg 94%
05:00 +15°C° 0.8 mm 0 mps 719 mmHg 93%
06:00 +15°C° 0.8 mm 0 mps 719 mmHg 92%
07:00 +17°C° 0.8 mm 0 mps 719 mmHg 88%
08:00 +20°C° 0.8 mm 1 mps 719 mmHg 84%
09:00 +21°C° 0.8 mm 1 mps 719 mmHg 80%
10:00 +21°C° 1.5 mm 1 mps 719 mmHg 80%
11:00 +20°C° 1.5 mm 2 mps 720 mmHg 80%
12:00 +20°C° 1.5 mm 2 mps 720 mmHg 80%
13:00 +20°C° 1.6 mm 2 mps 720 mmHg 83%
14:00 +19°C° 1.6 mm 2 mps 720 mmHg 85%
15:00 +19°C° 1.6 mm 2 mps 720 mmHg 88%
16:00 +18°C° 1 mm 2 mps 720 mmHg 89%
17:00 +19°C° 1 mm 1 mps 721 mmHg 90%
18:00 +18°C° 1 mm 1 mps 721 mmHg 91%
19:00 +16°C° 0.3 mm 1 mps 721 mmHg 92%
20:00 +16°C° 0.3 mm 1 mps 721 mmHg 93%
21:00 +15°C° 0.3 mm 1 mps 722 mmHg 94%
22:00 +14°C° 0 mm 1 mps 721 mmHg 94%
23:00 +14°C° 0 mm 1 mps 721 mmHg 94%

Day after tomorrow, 25 June, Friday

Time Temperature Precipitation Wind Pressure Humidity
00:00 +13°C° 0 mm 1 mps 721 mmHg 95%
01:00 +13°C° 0 mm 1 mps 721 mmHg 95%
02:00 +13°C° 0 mm 1 mps 721 mmHg 95%
03:00 +13°C° 0 mm 1 mps 721 mmHg 95%
04:00 +13°C° 0 mm 1 mps 721 mmHg 94%
05:00 +13°C° 0 mm 0 mps 721 mmHg 93%
06:00 +14°C° 0 mm 0 mps 721 mmHg 92%
07:00 +14°C° 0.1 mm 0 mps 721 mmHg 89%
08:00 +15°C° 0.1 mm 0 mps 721 mmHg 86%
09:00 +18°C° 0.1 mm 1 mps 721 mmHg 83%
10:00 +19°C° 0.3 mm 1 mps 721 mmHg 80%
11:00 +20°C° 0.3 mm 1 mps 721 mmHg 77%
12:00 +20°C° 0.3 mm 1 mps 721 mmHg 74%
13:00 +21°C° 0.3 mm 1 mps 721 mmHg 72%
14:00 +21°C° 0.3 mm 1 mps 721 mmHg 69%
15:00 +21°C° 0.3 mm 1 mps 721 mmHg 67%
16:00 +21°C° 0.2 mm 1 mps 721 mmHg 72%
17:00 +20°C° 0.2 mm 1 mps 720 mmHg 77%
18:00 +19°C° 0.2 mm 1 mps 720 mmHg 83%
19:00 +18°C° 0 mm 1 mps 721 mmHg 85%
20:00 +16°C° 0 mm 1 mps 721 mmHg 87%
21:00 +15°C° 0 mm 1 mps 721 mmHg 89%
22:00 +15°C° 0 mm 1 mps 721 mmHg 90%
23:00 +14°C° 0 mm 1 mps 720 mmHg 91%

26 June, Saturday

Time Temperature Precipitation Wind Pressure Humidity
00:00 +14°C° 0 mm 1 mps 720 mmHg 92%
01:00 +13°C° 0 mm 1 mps 720 mmHg 93%
02:00 +13°C° 0 mm 1 mps 720 mmHg 93%
03:00 +13°C° 0 mm 1 mps 720 mmHg 94%
04:00 +14°C° 0 mm 1 mps 720 mmHg 92%
05:00 +15°C° 0 mm 1 mps 720 mmHg 90%
06:00 +16°C° 0 mm 1 mps 720 mmHg 88%
07:00 +19°C° 0 mm 1 mps 720 mmHg 80%
08:00 +21°C° 0 mm 1 mps 720 mmHg 72%
09:00 +23°C° 0 mm 1 mps 720 mmHg 63%
10:00 +24°C° 0 mm 1 mps 720 mmHg 59%
11:00 +25°C° 0 mm 1 mps 720 mmHg 56%
12:00 +26°C° 0 mm 1 mps 720 mmHg 52%
13:00 +26°C° 0 mm 1 mps 720 mmHg 51%
14:00 +26°C° 0 mm 1 mps 719 mmHg 51%
15:00 +27°C° 0 mm 1 mps 719 mmHg 50%
16:00 +26°C° 0 mm 1 mps 719 mmHg 58%
17:00 +25°C° 0 mm 1 mps 719 mmHg 66%
18:00 +22°C° 0 mm 0 mps 719 mmHg 73%
19:00 +22°C° 0 mm 1 mps 719 mmHg 76%
20:00 +20°C° 0 mm 1 mps 719 mmHg 78%
21:00 +19°C° 0 mm 1 mps 719 mmHg 81%
22:00 +18°C° 0 mm 1 mps 719 mmHg 80%
23:00 +18°C° 0 mm 1 mps 719 mmHg 78%

27 June, Sunday

Time Temperature Precipitation Wind Pressure Humidity
00:00 +18°C° 0 mm 1 mps 719 mmHg 77%
01:00 +18°C° 0 mm 1 mps 719 mmHg 76%
02:00 +18°C° 0 mm 1 mps 719 mmHg 74%
03:00 +16°C° 0 mm 1 mps 719 mmHg 73%
04:00 +19°C° 0 mm 1 mps 719 mmHg 71%
05:00 +18°C° 0 mm 0 mps 719 mmHg 70%
06:00 +19°C° 0 mm 0 mps 719 mmHg 68%
07:00 +20°C° 0 mm 0 mps 719 mmHg 65%
08:00 +22°C° 0 mm 0 mps 719 mmHg 61%
09:00 +25°C° 0 mm 1 mps 719 mmHg 58%
10:00 +26°C° 0 mm 1 mps 719 mmHg 55%
11:00 +27°C° 0 mm 1 mps 719 mmHg 53%
12:00 +28°C° 0 mm 1 mps 719 mmHg 50%
13:00 +28°C° 0 mm 1 mps 719 mmHg 51%
14:00 +28°C° 0 mm 1 mps 719 mmHg 52%
15:00 +28°C° 0 mm 1 mps 718 mmHg 53%
16:00 +27°C° 0.1 mm 1 mps 718 mmHg 61%
17:00 +26°C° 0.1 mm 1 mps 718 mmHg 69%
18:00 +23°C° 0.1 mm 0 mps 718 mmHg 78%
19:00 +24°C° 0.2 mm 1 mps 719 mmHg 80%
20:00 +23°C° 0.2 mm 1 mps 719 mmHg 82%
21:00 +21°C° 0.2 mm 1 mps 719 mmHg 85%
22:00 +21°C° 0 mm 1 mps 719 mmHg 86%
23:00 +20°C° 0 mm 1 mps 719 mmHg 87%

28 June, Monday

Time Temperature Precipitation Wind Pressure Humidity
00:00 +20°C° 0 mm 1 mps 718 mmHg 88%
01:00 +19°C° 0 mm 1 mps 718 mmHg 88%
02:00 +19°C° 0 mm 1 mps 718 mmHg 89%
03:00 +19°C° 0 mm 1 mps 718 mmHg 89%
04:00 +19°C° 0.3 mm 1 mps 718 mmHg 89%
05:00 +20°C° 0.3 mm 1 mps 719 mmHg 88%
06:00 +21°C° 0.3 mm 1 mps 719 mmHg 88%
07:00 +22°C° 0 mm 1 mps 719 mmHg 81%
08:00 +23°C° 0 mm 1 mps 719 mmHg 74%
09:00 +25°C° 0 mm 1 mps 719 mmHg 66%
10:00 +25°C° 0.1 mm 1 mps 719 mmHg 65%
11:00 +26°C° 0.1 mm 1 mps 719 mmHg 64%
12:00 +26°C° 0.1 mm 1 mps 719 mmHg 64%
13:00 +26°C° 0.3 mm 1 mps 718 mmHg 66%
14:00 +26°C° 0.3 mm 1 mps 718 mmHg 68%
15:00 +26°C° 0.3 mm 1 mps 717 mmHg 71%
16:00 +25°C° 1.1 mm 2 mps 717 mmHg 78%
17:00 +23°C° 1.1 mm 2 mps 717 mmHg 84%
18:00 +21°C° 1.1 mm 2 mps 717 mmHg 91%
19:00 +20°C° 2.7 mm 2 mps 717 mmHg 93%
20:00 +18°C° 2.7 mm 2 mps 718 mmHg 95%
21:00 +16°C° 2.7 mm 1 mps 718 mmHg 97%
22:00 +16°C° 2 mm 1 mps 718 mmHg 97%
23:00 +16°C° 2 mm 1 mps 718 mmHg 97%
Show more

We Need Your Consent

Meteoprog and our Service Providers may store and access personal data such as cookies, device identifiers or other similar technologies on your device and process such data to personalise content and ads, as well as provide social media features and to analyse the traffic.

  • Store and/or access information on your device

    Cookies, device identifiers or other information can be stored or accessed on your device for the purposes indicated above.

  • Personalised ads and content, ad and content measurement, audience insights, and products development

    Ads and content can be personalised based on a profile. More data can be added to better personalise ads and content. Ad and content performance can be measured. Insights about the audience who saw the ads and content can be derived. Such data can be used to develop or improve user’s experience, systems and software.

By clicking ‘I Agree’ you will allow the use of indicated cookies, device identifiers, web beacons or other similar technologies. Your settings can be changed in the browser on your device.

For certain purposes, legitimate interests may be relied on, rather than consent. You can read more about this in our Privacy and Cookie Policy.